EHI
0 0 0 0 0 0 0 0 0 0 0 0 0 0 0 0 0 0 0 0 0 0 0 0 0 0 0 0 0 0 1 3 3 1 0 0 0 0 0 0 0 0 0 0
0 0 0 0 0 0 0 0 0 0 0 0 0 0 0 0 0 0 0 0 0 0 0 0 0 0 0 0 0 0 2 2 2 0 0 0 0 0 0 0 0 0 0 0
0 0 0 0 0 0 0 0 0 0 0 0 0 0 0 0 0 0 0 0 0 0 0 0 0 0 0 0 0 0 1 2 1 0 0 0 0 0 0 0 0 0 0 0
0 0 0 0 0 0 0 0 0 0 0 0 0 0 0 0 0 0 0 0 0 0 0 0 0 0 0 0 0 0 1 1 1 0 0 0 0 0 0 0 0 0 0 0
0 0 0 0 0 0 0 0 0 0 0 0 0 0 0 0 0 0 0 0 0 0 0 0 0 0 0 0 0 0 0 0 0 0 0 0 0 0 0 0 0 0 0 0
0 0 0 0 0 0 0 0 0 0 0 0 0 0 0 0 0 0 0 0 0 0 0 0 0 0 0 0 0 0 0 0 0 0 0 0 0 0 0 0 0 0 0 0
0 0 0 0 0 0 0 0 0 0 0 0 0 0 0 0 0 0 0 0 0 0 0 0 0 0 0 0 0 0 0 0 0 0 0 0 0 0 0 0 0 0 0 0
0 0 0 0 0 0 0 0 0 0 0 0 0 0 0 0 0 0 0 0 0 0 0 0 0 0 0 0 0 0 0 0 0 0 0 0 0 0 0 0 0 0 0 0
0 0 0 0 0 0 0 0 0 0 0 0 0 0 0 0 0 0 0 0 0 0 0 0 0 0 0 0 0 0 0 0 0 0 0 0 0 0 0 0 0 0 0 0
0 0 0 0 0 0 0 0 0 0 0 0 0 0 0 0 0 0 0 0 0 0 0 0 0 0 0 0 0 0 0 0 0 0 0 0 0 0 0 0 0 0 0 0
0 0 0 0 0 0 0 0 0 0 0 0 0 0 0 0 0 0 0 0 0 0 0 0 0 0 0 0 0 0 0 0 0 0 0 0 0 0 0 0 0 0 0 0
0 0 0 0 0 0 0 0 0 0 0 0 0 0 0 0 0 0 0 0 0 0 0 0 0 0 0 0 0 0 0 0 0 0 0 0 0 0 0 0 0 0 0 0
0 0 0 0 0 0 0 0 0 0 0 0 0 0 0 0 0 0 0 0 0 0 0 0 0 0 0 0 0 0 0 0 0 0 0 0 0 0 0 0 0 0 0 0
0 0 0 0 0 0 0 0 0 0 0 0 0 0 0 0 0 0 0 0 0 0 0 0 0 0 0 0 0 0 0 0 0 0 0 0 0 0 0 0 0 0 0 0
0 0 0 0 0 0 0 0 0 0 0 0 0 0 0 0 0 0 0 0 0 0 0 0 0 0 0 0 0 0 0 0 0 0 0 0 0 0 0 0 0 0 0 0
0 0 0 0 0 0 0 0 0 0 0 0 0 0 0 0 0 0 0 0 0 0 0 0 0 0 0 0 0 0 0 0 0 0 0 0 0 0 0 0 0 0 0 0
0 0 0 0 0 0 0 0 0 0 0 0 0 0 0 0 0 0 0 0 0 0 0 0 0 0 0 0 0 0 0 0 0 0 0 0 0 0 0 0 0 0 0 0
0 0 0 0 0 0 0 0 0 0 0 0 0 0 0 0 0 0 0 0 0 0 0 0 0 0 0 0 0 0 0 0 0 0 0 0 0 0 0 0 0 0 0 0
0 0 0 0 0 0 0 0 0 0 0 0 0 0 0 0 0 0 0 0 0 0 0 0 0 0 0 0 0 0 0 0 0 0 0 0 0 0 0 0 0 0 0 0
0 0 0 0 0 0 0 0 0 0 0 0 0 0 0 0 0 0 0 0 0 0 0 0 0 0 0 0 0 0 0 0 0 0 0 0 0 0 0 0 0 0 0 0
0 0 0 0 0 0 0 0 0 0 0 0 0 0 0 0 0 0 0 0 0 0 0 0 0 0 0 0 0 0 0 0 0 0 0 0 0 0 0 0 0 0 0 0
0 0 0 0 0 0 0 0 0 0 0 0 0 0 0 0 0 0 0 0 0 0 0 0 0 0 0 0 0 0 0 0 0 0 0 0 0 0 0 0 0 0 0 0
0 0 0 0 0 0 0 0 0 0 0 0 0 0 0 0 0 0 0 0 0 0 0 0 0 0 0 0 0 0 0 0 0 0 0 0 0 0 0 0 0 0 0 0
0 0 0 0 0 0 0 0 0 0 0 0 0 0 0 0 0 0 0 0 0 0 0 0 0 0 0 0 0 0 0 0 0 0 0 0 0 0 0 0 0 0 0 0
0 0 0 0 0 0 0 0 0 0 0 0 0 0 0 0 0 0 0 0 0 0 0 0 0 0 0 0 0 0 0 0 0 0 0 0 0 0 0 0 0 0 0 0
0 0 0 0 0 0 0 0 0 0 0 0 0 0 0 0 0 0 0 0 0 0 0 0 0 0 0 0 0 0 0 0 0 0 0 0 0 0 0 0 0 0 0 0
0 0 0 0 0 0 0 0 0 0 0 0 0 0 0 0 0 0 0 0 0 0 0 0 0 0 0 0 0 0 0 0 0 0 0 0 0 0 0 0 0 0 0 0
Wind_Speed
4 7 8 11 13 12 9 5 4 4 4 10 13 11 11 12 11 11 10 9 6 4 3 3 3 4 4 4 2 1 2 2 2 2 1 2 3 3 2 3 3 4 4 4
5 7 12 15 17 14 11 10 8 6 6 11 12 10 11 14 15 14 12 10 9 7 6 6 5 4 4 5 4 3 3 2 2 1 1 2 3 2 2 2 2 3 4 5
2 2 3 10 11 10 9 10 8 8 8 13 13 13 11 12 13 11 11 10 9 7 6 6 5 5 5 6 6 7 6 4 3 2 0 2 2 1 2 2 2 2 3 4
2 4 6 2 4 5 4 7 9 8 10 12 13 11 6 8 11 11 10 8 7 6 6 5 5 6 6 7 8 8 7 5 4 3 2 2 1 0 1 1 2 2 3 4
3 3 2 2 4 4 3 2 7 10 12 14 15 8 5 10 13 9 7 5 4 4 4 5 6 5 7 7 7 7 6 5 4 4 4 4 3 2 2 1 1 1 2 3
4 3 1 4 7 6 3 1 5 9 11 12 12 8 8 15 15 11 8 4 4 4 5 5 4 5 7 6 6 5 4 4 4 4 4 4 4 3 2 1 1 1 1 2
3 2 1 4 6 4 3 5 8 6 7 8 5 5 11 15 13 9 6 3 2 4 3 2 2 5 5 4 4 3 3 4 4 4 4 4 3 3 3 2 2 1 1 1
2 1 3 3 3 3 3 4 4 5 5 7 8 10 11 11 11 10 6 3 1 2 1 0 1 3 4 3 3 2 3 4 4 5 4 4 5 5 5 4 4 3 2 2
4 5 4 2 2 3 4 3 4 4 7 7 8 9 10 10 10 9 6 4 2 1 1 1 0 2 2 3 3 3 4 4 4 4 5 5 5 6 5 5 4 3 3 3
1 2 3 3 2 2 2 4 5 6 7 7 7 9 11 10 9 8 7 5 3 1 1 2 2 1 0 1 3 4 4 3 2 4 4 5 5 5 4 5 4 4 4 3
2 2 2 1 2 3 3 5 6 6 6 6 7 8 7 7 8 8 6 5 4 2 2 3 3 3 2 1 3 4 3 2 2 2 3 4 4 5 4 4 4 3 2 2
6 6 5 4 4 3 3 5 6 6 6 7 5 7 7 7 7 7 7 6 5 4 3 3 3 4 3 2 3 4 2 1 0 1 1 2 2 3 6 6 8 9 7 4
7 6 6 4 3 2 3 4 5 5 5 6 7 6 6 6 6 7 7 7 6 6 5 4 4 4 4 3 3 4 3 2 1 1 1 1 1 1 1 3 6 9 10 9
7 6 3 2 2 2 3 4 4 5 6 6 6 6 6 6 7 8 8 8 7 6 5 4 4 5 5 4 4 4 3 2 2 1 1 1 1 1 1 1 2 3 5 8
7 6 5 3 1 2 3 3 4 6 6 6 6 7 7 7 8 9 9 9 7 5 4 4 4 4 4 4 5 4 3 2 1 1 1 1 1 2 2 2 2 2 3 4
7 6 5 3 0 2 3 3 4 5 6 6 6 7 8 8 8 8 8 7 6 7 6 4 4 4 4 5 5 4 3 3 3 1 1 1 2 2 2 2 2 2 2 3
9 6 4 3 2 2 3 4 4 5 6 7 8 8 8 7 8 8 9 8 7 7 6 5 4 3 4 6 5 3 3 2 2 2 1 2 2 3 3 3 2 2 1 2
9 8 7 5 4 4 4 5 5 5 6 7 7 7 7 7 8 9 9 9 8 8 6 4 3 3 4 5 5 4 3 2 2 2 2 2 2 3 3 3 3 2 1 2
8 8 7 5 5 4 4 5 5 6 7 6 6 6 7 7 8 8 8 7 7 7 7 6 4 3 4 6 6 4 4 3 2 2 2 3 3 3 3 3 3 2 2 2
8 7 5 4 4 4 4 5 5 6 6 5 5 6 7 8 8 8 7 6 5 6 7 7 3 3 4 6 7 4 4 4 4 3 2 3 3 3 3 3 3 2 2 2
9 7 5 4 4 4 5 5 4 5 6 5 5 6 7 8 8 7 6 7 8 7 7 5 2 3 4 5 6 4 4 4 4 3 3 3 3 3 3 3 3 3 2 2
7 6 5 4 4 4 4 4 4 4 5 5 6 6 7 7 7 7 6 5 8 11 6 3 2 4 6 7 4 4 4 4 3 3 3 3 3 3 3 3 3 3 3 3
7 6 5 5 4 4 3 3 3 3 4 5 6 6 6 6 5 5 7 6 6 10 6 3 4 6 10 6 4 4 4 4 4 3 3 3 4 4 4 4 4 4 4 4
7 6 6 5 3 2 3 4 4 4 5 5 5 6 5 5 5 5 5 10 12 11 5 5 6 8 9 4 4 4 4 4 4 3 3 3 3 4 4 4 4 4 4 5
7 6 5 4 3 3 4 4 4 4 5 4 6 6 5 4 5 7 7 8 11 9 4 5 6 8 6 4 5 5 4 4 4 4 4 4 4 4 4 4 4 4 4 4
7 5 5 5 5 4 3 3 3 3 3 4 4 5 5 5 6 6 6 7 8 7 4 2 2 5 4 4 5 5 4 4 5 4 4 4 5 5 4 5 6 4 4 4
6 4 3 3 3 4 3 3 4 4 4 3 4 5 5 5 5 6 7 6 6 5 3 2 2 3 3 4 4 5 4 4 4 4 4 4 4 5 5 6 5 4 4 4
Wind_Direction
57 70 63 46 32 35 47 50 78 73 31 354 346 346 351 360 10 20 21 19 14 356 334 335 341 345 339 326 312 190 153 153 188 228 266 271 257 229 215 200 194 193 190 190
68 84 67 48 29 28 34 35 45 39 20 349 340 349 5 10 15 20 17 19 21 25 33 31 26 17 11 18 29 82 108 129 156 134 261 269 259 248 222 217 208 193 195 192
16 332 44 37 9 16 36 30 20 20 348 337 344 348 358 4 6 11 11 13 20 27 39 43 44 46 39 35 45 58 62 53 46 48 349 275 268 250 243 226 208 201 200 195
52 35 54 321 295 330 17 40 22 0 344 345 336 316 317 1 359 357 359 6 15 25 38 42 50 53 55 52 52 53 50 43 36 34 3 342 23 25 262 231 202 203 206 206
66 73 89 335 330 330 306 13 13 352 345 347 340 335 336 352 351 343 344 356 18 36 54 53 50 52 57 50 49 51 44 35 27 28 27 23 17 350 312 290 249 226 209 205
63 78 62 292 302 305 215 272 357 346 340 342 352 8 330 329 332 331 339 355 26 38 51 52 42 54 57 45 40 35 29 26 24 33 41 30 12 357 344 339 306 266 235 218
59 82 272 273 306 2 73 294 312 317 320 327 330 282 289 308 317 321 325 340 49 56 58 56 60 64 55 38 20 356 20 33 31 30 39 31 15 1 355 359 8 6 352 323
63 49 273 300 35 60 243 261 284 297 300 303 299 298 305 313 319 323 324 325 39 82 62 11 90 77 51 11 337 1 40 43 38 30 30 29 24 17 15 19 29 21 20 10
184 211 227 193 169 216 225 268 280 283 290 295 302 306 313 315 319 319 315 314 300 194 214 290 238 109 55 337 353 45 61 55 49 46 37 30 31 24 20 19 25 21 27 29
171 223 186 177 202 248 251 260 273 279 286 292 296 303 310 313 320 323 321 314 310 293 239 267 256 227 224 357 50 81 80 71 62 60 49 38 33 29 30 22 18 19 21 24
205 221 176 259 269 271 284 290 293 295 289 289 295 303 306 313 319 324 319 315 313 294 253 253 241 233 241 110 93 96 99 86 67 70 77 63 51 35 29 29 19 21 12 13
206 208 185 235 255 267 291 298 298 306 310 311 306 306 313 315 315 321 322 317 315 301 270 255 231 226 232 188 130 122 119 109 95 100 101 106 96 63 38 39 37 42 41 43
177 183 185 217 247 282 290 295 304 312 311 315 316 314 317 314 314 319 322 323 309 290 267 253 232 226 225 202 156 143 149 161 165 161 155 162 159 134 67 20 29 36 37 44
163 155 172 203 241 293 312 318 324 325 318 315 311 315 317 315 318 324 322 318 307 292 268 248 236 232 220 190 161 150 150 153 157 189 202 188 174 161 139 99 39 13 16 32
174 169 181 194 211 344 342 338 337 327 321 319 315 318 320 322 321 319 317 318 322 313 287 261 246 238 202 171 157 154 151 158 151 142 136 126 118 113 114 108 86 42 14 11
176 165 158 150 128 327 327 328 320 312 313 313 315 316 314 312 310 310 314 322 329 315 294 271 252 233 185 161 151 151 165 174 151 124 108 111 110 113 113 107 90 71 42 14
156 168 169 182 238 275 279 280 284 292 301 307 306 308 313 318 322 323 323 322 315 302 289 265 250 221 175 163 157 158 161 167 144 110 114 129 129 129 126 117 108 90 40 19
169 172 175 188 212 244 272 284 286 292 292 293 302 313 320 322 320 317 317 319 322 323 315 290 255 197 172 164 156 152 154 158 153 151 141 128 126 127 125 122 123 113 60 42
161 167 181 204 222 228 241 261 273 283 291 300 310 312 310 308 307 308 312 319 323 320 312 307 272 190 172 171 153 144 148 155 154 146 138 134 124 125 129 130 132 131 116 86
164 170 186 218 238 232 247 264 277 288 293 301 310 314 315 313 312 313 314 307 287 276 286 292 259 188 176 168 150 139 145 151 152 148 138 139 143 146 147 146 144 142 134 121
169 179 199 222 244 257 262 272 281 287 296 304 304 304 305 307 311 316 317 313 304 306 307 291 233 187 174 160 146 136 142 150 154 155 155 157 155 154 154 154 154 152 142 130
174 186 208 220 231 260 274 277 275 285 299 306 307 309 314 314 316 316 303 281 292 310 314 284 241 194 175 157 143 143 148 153 155 154 158 161 159 161 161 159 158 153 143 136
177 187 201 210 220 239 269 278 279 287 294 299 302 306 306 301 301 309 312 304 304 308 306 271 246 201 170 153 149 149 152 155 159 161 165 166 165 161 158 157 154 147 141 138
177 186 199 206 199 212 261 272 277 282 288 293 292 296 298 304 307 294 282 298 306 307 294 269 245 193 163 153 153 152 154 158 161 162 159 154 152 150 149 148 145 141 139 137
179 184 189 187 199 223 240 258 282 293 301 300 298 300 296 283 285 299 304 305 308 308 297 271 228 181 163 158 160 160 161 167 166 161 156 152 151 149 150 148 147 144 142 141
177 184 192 196 201 213 223 235 254 272 279 288 293 294 297 300 300 303 307 309 309 307 294 270 201 173 165 167 168 166 165 166 164 161 161 157 156 153 152 152 150 148 147 144
176 178 183 206 229 224 223 229 238 251 248 251 274 288 298 307 311 315 318 321 323 316 298 264 206 181 174 174 173 171 168 165 163 162 161 160 160 160 160 158 154 149 146 146